Lid_Strength_Index
9 11 12 10 10 10 10 11 11 10 9 11 11 11 10 8 8 8 7 6 6 5 4 3 2 2 2 1 2 1 1 2 1 1 2 2 2 2 2 1 0 0 0 0
9 12 9 8 8 9 9 11 11 10 9 11 11 12 10 9 8 7 7 7 6 5 4 3 3 2 2 2 2 1 1 1 1 1 1 1 1 1 1 0 0 -0 -0 0
11 9 6 8 9 9 11 12 11 11 9 10 11 13 12 9 8 7 6 6 5 5 5 4 3 3 2 2 2 2 1 1 1 1 1 1 1 1 1 1 1 0 0 -0
10 7 8 8 9 9 13 9 9 9 12 14 10 17 13 11 10 8 7 7 6 5 5 4 4 3 3 2 1 1 1 1 1 1 1 2 2 3 2 1 1 1 0 0
11 9 9 9 9 8 10 8 9 10 12 14 13 14 14 10 12 10 8 7 6 5 5 4 4 3 2 2 2 1 1 1 1 1 1 2 2 2 1 1 1 1 1 0
10 7 8 9 7 8 7 9 11 12 14 16 14 15 15 13 11 9 7 7 6 5 5 4 3 3 3 2 2 2 2 1 1 1 2 1 2 2 2 3 2 2 1 1
12 11 9 8 11 9 10 13 16 16 17 17 15 15 14 10 8 8 8 7 6 5 5 4 4 4 4 3 2 2 2 2 1 1 1 1 1 2 2 3 2 2 2 1
15 15 11 9 12 12 12 13 16 18 18 16 13 15 13 8 7 6 6 6 5 5 5 4 4 3 4 3 2 2 2 2 1 1 1 1 1 1 1 1 1 1 1 1
15 14 9 9 9 11 11 14 12 15 15 16 14 12 9 8 8 7 7 7 6 6 5 4 4 3 3 3 2 2 2 2 2 1 1 2 1 1 1 1 2 1 1 1
12 15 12 9 9 10 12 11 14 15 17 19 15 14 13 12 10 9 8 7 6 5 5 4 4 3 3 3 2 2 2 2 2 1 1 1 1 1 2 1 1 2 1 1
13 13 12 11 13 13 13 14 14 14 15 17 17 15 10 10 10 9 8 6 6 6 5 4 4 3 3 2 2 2 2 2 2 1 1 1 1 1 1 1 1 1 2 1
12 14 16 13 10 10 11 14 15 16 16 15 16 15 8 8 8 8 8 7 6 5 5 5 4 4 3 3 2 2 2 2 2 1 1 1 1 1 1 2 1 1 1 0
12 16 18 16 13 12 13 13 15 15 16 16 16 14 8 8 8 7 8 7 6 6 5 5 4 4 4 3 4 3 2 2 2 1 1 1 2 1 1 1 2 2 1 1
9 16 17 19 16 13 13 13 13 16 18 17 16 14 11 10 10 8 8 7 7 6 5 5 5 4 4 3 3 3 2 2 2 2 2 2 2 2 1 1 1 1 1 1
12 16 14 14 12 11 12 11 13 15 15 17 15 14 12 10 9 8 7 7 7 7 6 6 6 4 4 3 3 2 3 2 2 2 2 2 1 1 2 1 1 1 1 1
11 14 14 14 11 12 13 12 11 12 12 11 12 11 9 8 7 8 7 7 7 7 7 6 6 5 4 3 3 3 2 2 2 2 2 2 2 1 1 2 2 1 1 1
12 13 15 17 12 13 16 12 11 10 11 11 14 11 9 9 8 8 7 7 7 7 7 7 6 5 5 4 3 3 4 3 4 2 2 2 2 2 2 1 2 2 2 1
13 13 14 17 15 19 14 9 8 10 9 9 9 9 9 8 8 8 8 8 8 6 7 7 7 5 4 4 4 2 2 3 3 3 3 2 2 2 2 2 2 2 1 2
10 13 15 17 17 14 11 10 11 11 11 8 9 8 9 9 8 9 7 7 8 7 6 7 6 6 5 5 5 4 3 3 3 2 3 3 2 2 2 2 2 1 2 1
11 11 13 16 17 18 13 9 7 7 14 8 8 8 9 8 13 12 9 7 7 7 6 7 5 6 6 5 5 6 6 4 4 4 3 3 4 2 2 2 2 1 1 1
15 14 16 16 17 14 9 8 6 15 14 7 8 8 9 11 9 10 8 8 7 7 7 6 7 6 6 4 5 7 7 7 6 4 4 2 3 3 1 1 1 1 2 2
15 17 19 16 18 18 8 8 12 9 7 6 7 8 9 8 8 7 7 8 7 7 7 6 7 7 5 4 5 5 7 6 6 6 5 3 3 3 1 2 2 2 2 2
14 13 16 14 14 9 9 9 8 8 9 9 8 8 8 9 8 8 7 7 8 8 7 7 6 7 6 5 5 7 7 6 5 6 6 5 5 3 2 2 2 2 2 2
11 10 14 13 11 10 9 8 8 8 9 8 8 7 7 8 8 8 8 7 6 7 6 6 7 7 6 6 5 6 6 6 5 6 6 6 7 3 2 2 2 2 2 3
11 10 12 12 10 10 9 9 8 7 8 7 7 7 8 8 9 9 8 8 7 6 6 6 7 7 6 6 6 6 6 7 6 6 6 6 8 6 3 2 2 2 2 2
10 12 14 14 10 10 10 8 8 8 8 8 8 8 7 8 9 8 9 8 7 7 6 5 6 6 6 7 7 7 7 7 6 5 6 7 7 8 6 3 3 11 10 10